Board Camp, AR

6:10 AM CDT on August 26, 2016 (GMT -0500)
Mena

Weather History for KMEZ - September, 2013

Change the Weather History Date:

Thursday, September 26, 2013

  Actual Average (KDEQ) Record (KDEQ)
Temperature  
Mean Temperature 70 °F 70 °F  
Max Temperature 87 °F 82 °F 100 °F (1954)
Min Temperature 53 °F 57 °F 39 °F (1989)
Degree Days  
Heating Degree Days 0 1  
Month to date heating degree days 3  
Since 1 July heating degree days 3  
Cooling Degree Days 5 5  
Month to date cooling degree days 255  
Year to date cooling degree days 1847  
Growing Degree Days 20 (Base 50)    
Moisture  
Dew Point 59 °F    
Average Humidity 55    
Maximum Humidity 100    
Minimum Humidity 31    
Precipitation  
Precipitation 0.00 in 0.13 in 2.50 in (1984)
Month to date precipitation 3.16  
Year to date precipitation 34.75  
Snow  
Snow 0.00 in - - ()
Month to date snowfall  
Since 1 July snowfall  
Since 1 September snowfall  
Snow Depth -    
Sea Level Pressure  
Sea Level Pressure 29.94 in    
Wind  
Wind Speed 0 mph (SE)    
Max Wind Speed 6 mph    
Max Gust Speed -    
Visibility 9 miles    
Events      
T = Trace of Precipitation, MM = Missing Value Source: NWS Daily Summary

Daily Weather History Graph

Daily Weather History Graph

Search for Another Location

Airport or City:

Trip Planner

Search our weather history database for the weather conditions in past years. The results will help you decide how hot, cold, wet, or windy it might be!

Date:

Astronomy

Sep. 26, 2013 Rise Set
Actual Time 7:07 AM CDT 7:07 PM CDT
Civil Twilight 6:42 AM CDT 7:32 PM CDT
Nautical Twilight 6:13 AM CDT 8:01 PM CDT
Astronomical Twilight 5:44 AM CDT 8:31 PM CDT
Moon No Moon Rise 1:48 PM CDT
Length of Visible Light 12h 49m
Length of Day
11h 59m
Waning Gibbous, 54% of the Moon is Illuminated
Sep 26
Waning Gibbous
Sep 26
Last Quarter
Oct 4
New
Oct 11
First Quarter
Oct 18
Full

Hourly Weather History & Observations

Time (CDT) Temp. Heat Index Dew Point Humidity Pressure Visibility Wind Dir Wind Speed Gust Speed Precip Events Conditions
12:15 AM 59.0 °F - - N/A% 29.89 in 7.0 mi Calm Calm - N/A   Clear
12:35 AM 59.0 °F - - N/A% 29.89 in 7.0 mi Calm Calm - N/A   Clear
12:55 AM 59.0 °F - - N/A% 29.89 in 10.0 mi Calm Calm - N/A   Clear
1:15 AM 59.0 °F - - N/A% 29.89 in 4.0 mi Calm Calm - N/A   Haze
1:35 AM 57.2 °F - - N/A% 29.89 in 5.0 mi Calm Calm - N/A   Haze
1:55 AM 57.2 °F - - N/A% 29.89 in 10.0 mi Calm Calm - N/A   Clear
2:15 AM 59.0 °F - - N/A% 29.89 in 7.0 mi Calm Calm - N/A   Clear
2:35 AM 57.2 °F - - N/A% 29.89 in 7.0 mi Calm Calm - N/A   Clear
2:55 AM 57.2 °F - - N/A% 29.89 in 5.0 mi Calm Calm - N/A   Haze
3:15 AM 55.4 °F - - N/A% 29.89 in 5.0 mi Calm Calm - N/A   Haze
3:35 AM 57.2 °F - - N/A% 29.89 in 5.0 mi Calm Calm - N/A   Haze
3:55 AM 55.4 °F - - N/A% 29.89 in 5.0 mi Calm Calm - N/A   Haze
4:15 AM 55.4 °F - - N/A% 29.90 in 5.0 mi Calm Calm - N/A   Haze
4:35 AM 55.4 °F - - N/A% 29.90 in 7.0 mi Calm Calm - N/A   Clear
4:55 AM 55.4 °F - - N/A% 29.90 in 5.0 mi Calm Calm - N/A   Haze
5:15 AM 55.4 °F - - N/A% 29.90 in 5.0 mi Calm Calm - N/A   Haze
5:35 AM 55.4 °F - - N/A% 29.91 in 7.0 mi Calm Calm - N/A   Clear
5:55 AM 55.4 °F - - N/A% 29.91 in 7.0 mi Calm Calm - N/A   Clear
6:15 AM 55.4 °F - - N/A% 29.91 in 5.0 mi Calm Calm - N/A   Haze
6:35 AM 55.4 °F - - N/A% 29.92 in 5.0 mi Calm Calm - N/A   Haze
6:55 AM 55.4 °F - - N/A% 29.93 in 7.0 mi Calm Calm - N/A   Clear
7:15 AM 53.6 °F - - N/A% 29.94 in 7.0 mi Calm Calm - N/A   Clear
7:35 AM 55.4 °F - - N/A% 29.95 in 7.0 mi Calm Calm - N/A   Clear
7:55 AM 57.2 °F - - N/A% 29.96 in 7.0 mi Calm Calm - N/A   Clear
8:15 AM 59.0 °F - - N/A% 29.96 in 10.0 mi Calm Calm - N/A   Clear
8:35 AM 62.6 °F - - N/A% 29.97 in 10.0 mi Calm Calm - N/A   Clear
8:55 AM 64.4 °F - 64.4 °F 100% 29.98 in 10.0 mi Calm Calm - N/A   Clear
9:15 AM 68.0 °F - 68.0 °F 100% 29.98 in 10.0 mi Calm Calm - N/A   Clear
9:35 AM 68.0 °F - 60.8 °F 78% 29.99 in 10.0 mi Calm Calm - N/A   Clear
9:55 AM 69.8 °F - 60.8 °F 73% 29.99 in 10.0 mi ENE 3.5 mph - N/A   Clear
10:15 AM 71.6 °F - 60.8 °F 69% 30.00 in 10.0 mi East 3.5 mph - N/A   Clear
10:35 AM 71.6 °F - 60.8 °F 69% 30.00 in 10.0 mi Calm Calm - N/A   Clear
10:55 AM 75.2 °F - 60.8 °F 61% 30.00 in 10.0 mi Calm Calm - N/A   Clear
11:15 AM 77.0 °F - 60.8 °F 57% 30.00 in 10.0 mi Calm Calm - N/A   Clear
11:35 AM 78.8 °F - 60.8 °F 54% 29.99 in 10.0 mi Calm Calm - N/A   Clear
11:55 AM 80.6 °F 81.5 °F 60.8 °F 51% 29.99 in 10.0 mi Calm Calm - N/A   Clear
12:15 PM 82.4 °F 82.5 °F 59.0 °F 45% 29.98 in 10.0 mi Calm Calm - N/A   Clear
12:35 PM 82.4 °F 82.0 °F 57.2 °F 42% 29.98 in 10.0 mi SW 3.5 mph - N/A   Clear
12:55 PM 84.2 °F 83.5 °F 57.2 °F 40% 29.97 in 10.0 mi WSW 4.6 mph - N/A   Clear
1:15 PM 86.0 °F 85.4 °F 59.0 °F 40% 29.97 in 10.0 mi SSE 5.8 mph - N/A   Clear
1:35 PM 86.0 °F 84.9 °F 57.2 °F 37% 29.96 in 10.0 mi Calm Calm - N/A   Clear
1:55 PM 86.0 °F 84.9 °F 57.2 °F 37% 29.95 in 10.0 mi Calm Calm - N/A   Clear
2:15 PM 86.0 °F 84.9 °F 57.2 °F 37% 29.95 in 10.0 mi ESE 3.5 mph - N/A   Clear
2:35 PM 87.8 °F 86.1 °F 55.4 °F 33% 29.94 in 10.0 mi South 3.5 mph - N/A   Clear
2:55 PM 87.8 °F 86.1 °F 55.4 °F 33% 29.93 in 10.0 mi SE 3.5 mph - N/A   Clear
3:15 PM 87.8 °F 86.1 °F 55.4 °F 33% 29.93 in 10.0 mi East 5.8 mph - N/A   Clear
3:35 PM 87.8 °F 86.1 °F 55.4 °F 33% 29.93 in 10.0 mi Calm Calm - N/A   Clear
3:55 PM 87.8 °F 86.1 °F 55.4 °F 33% 29.93 in 10.0 mi East 3.5 mph - N/A   Clear
4:15 PM 87.8 °F 85.7 °F 53.6 °F 31% 29.92 in 10.0 mi East 4.6 mph - N/A   Clear
4:35 PM 87.8 °F 86.1 °F 55.4 °F 33% 29.92 in 10.0 mi ESE 3.5 mph - N/A   Clear
4:55 PM 87.8 °F 85.7 °F 53.6 °F 31% 29.92 in 10.0 mi Calm Calm - N/A   Clear
5:15 PM 87.8 °F 85.7 °F 53.6 °F 31% 29.92 in 10.0 mi Calm Calm - N/A   Clear
5:35 PM 87.8 °F 85.7 °F 53.6 °F 31% 29.92 in 10.0 mi Calm Calm - N/A   Clear
5:55 PM 87.8 °F 86.1 °F 55.4 °F 33% 29.92 in 10.0 mi Calm Calm - N/A   Clear
6:15 PM 86.0 °F 84.9 °F 57.2 °F 37% 29.92 in 10.0 mi Calm Calm - N/A   Clear
6:35 PM 84.2 °F 83.8 °F 59.0 °F 42% 29.92 in 10.0 mi Calm Calm - N/A   Clear
6:55 PM 82.4 °F 82.9 °F 60.8 °F 48% 29.93 in 10.0 mi Calm Calm - N/A   Clear
7:15 PM 78.8 °F - 60.8 °F 54% 29.93 in 10.0 mi Calm Calm - N/A   Clear
7:35 PM 77.0 °F - 60.8 °F 57% 29.93 in 10.0 mi Calm Calm - N/A   Clear
7:55 PM 77.0 °F - 60.8 °F 57% 29.93 in 10.0 mi Calm Calm - N/A   Clear
8:15 PM 71.6 °F - 62.6 °F 73% 29.94 in 10.0 mi Calm Calm - N/A   Clear
8:35 PM 69.8 °F - 62.6 °F 78% 29.95 in 10.0 mi Calm Calm - N/A   Clear
8:55 PM 69.8 °F - 64.4 °F 83% 29.96 in 10.0 mi Calm Calm - N/A   Clear
9:15 PM 69.8 °F - 64.4 °F 83% 29.96 in 10.0 mi Calm Calm - N/A   Clear
9:35 PM 71.6 °F - 62.6 °F 73% 29.96 in 10.0 mi Calm Calm - N/A   Clear
9:55 PM 69.8 °F - 64.4 °F 83% 29.97 in 10.0 mi Calm Calm - N/A   Clear
10:15 PM 68.0 °F - 66.2 °F 94% 29.97 in 10.0 mi Calm Calm - N/A   Clear
10:35 PM 66.2 °F - 66.2 °F 100% 29.97 in 10.0 mi Calm Calm - N/A   Clear
10:55 PM 64.4 °F - - N/A% 29.98 in 10.0 mi Calm Calm - N/A   Clear
11:15 PM 64.4 °F - - N/A% 29.98 in 10.0 mi Calm Calm - N/A   Clear
11:35 PM 64.4 °F - - N/A% 29.98 in 10.0 mi Calm Calm - N/A   Clear
11:55 PM 62.6 °F - - N/A% 29.98 in 7.0 mi Calm Calm - N/A   Clear